| time (UTC) | temp C | wind direction | speed KPH | gust KPH | rain 1hr cm | rain 24hr cm | rain mn cm | humidity % | barometer mb |
| 20260505101558 | 7 | 180 | 0.0 | 0.0 | 0.00 | 0.03 | 0.00 | 90 | 1019.0 |
| 20260505100055 | 7 | 180 | 0.0 | 0.0 | 0.00 | 0.03 | 0.00 | 89 | 1018.9 |
| 20260505094600 | 8 | 180 | 0.0 | 0.0 | 0.00 | 0.03 | 0.00 | 89 | 1018.9 |
| 20260505093055 | 8 | 180 | 0.0 | 3.2 | 0.00 | 0.03 | 0.00 | 89 | 1018.7 |
| 20260505091550 | 8 | 180 | 0.0 | 0.0 | 0.00 | 0.03 | 0.00 | 87 | 1018.5 |
| 20260505090053 | 8 | 180 | 0.0 | 0.0 | 0.00 | 0.03 | 0.00 | 86 | 1018.5 |
| 20260505084544 | 9 | 180 | 0.0 | 0.0 | 0.00 | 0.03 | 0.00 | 84 | 1018.2 |
| 20260505083057 | 10 | 180 | 0.0 | 0.0 | 0.00 | 0.03 | 0.00 | 83 | 1017.9 |
| 20260505081541 | 10 | 47 | 0.0 | 0.0 | 0.00 | 0.05 | 0.00 | 80 | 1017.8 |
| 20260505080043 | 11 | 317 | 0.0 | 0.0 | 0.00 | 0.05 | 0.00 | 79 | 1017.6 |
| 20260505074539 | 11 | 311 | 0.0 | 6.4 | 0.00 | 0.05 | 0.00 | 78 | 1017.3 |
| 20260505073040 | 11 | 281 | 0.0 | 9.7 | 0.00 | 0.05 | 0.00 | 76 | 1017.1 |
| 20260505071535 | 12 | 296 | 4.8 | 11.3 | 0.00 | 0.05 | 0.00 | 75 | 1016.8 |
| 20260505070041 | 12 | 289 | 1.6 | 12.9 | 0.00 | 0.05 | 0.00 | 74 | 1016.6 |
| 20260505064534 | 13 | 314 | 4.8 | 12.9 | 0.00 | 0.05 | 0.00 | 72 | 1016.3 |
| 20260505063033 | 13 | 317 | 3.2 | 11.3 | 0.00 | 0.05 | 0.00 | 71 | 1016.3 |
| 20260505061552 | 14 | 291 | 4.8 | 11.3 | 0.00 | 0.05 | 0.00 | 68 | 1016.1 |
| 20260505060036 | 14 | 307 | 3.2 | 12.9 | 0.00 | 0.05 | 0.00 | 67 | 1016.1 |
| 20260505054544 | 15 | 302 | 3.2 | 9.7 | 0.00 | 0.05 | 0.00 | 66 | 1015.9 |
| 20260505053036 | 15 | 306 | 4.8 | 12.9 | 0.00 | 0.05 | 0.00 | 67 | 1015.6 |
| 20260505051533 | 15 | 277 | 3.2 | 12.9 | 0.00 | 0.08 | 0.00 | 67 | 1015.5 |
| 20260505041525 | 14 | 247 | 9.7 | 19.3 | 0.00 | 0.08 | 0.00 | 66 | 1015.1 |
| 20260505040037 | 14 | 279 | 6.4 | 20.9 | 0.00 | 0.08 | 0.00 | 67 | 1015.2 |
| 20260505034534 | 14 | 270 | 6.4 | 17.7 | 0.00 | 0.08 | 0.00 | 66 | 1015.2 |
| 20260505033021 | 14 | 283 | 6.4 | 19.3 | 0.00 | 0.08 | 0.00 | 64 | 1015.1 |
| 20260505031519 | 14 | 276 | 6.4 | 17.7 | 0.00 | 0.08 | 0.00 | 67 | 1015.2 |
| 20260505030019 | 13 | 278 | 6.4 | 17.7 | 0.00 | 0.08 | 0.00 | 67 | 1015.3 |
| 20260505024516 | 13 | 278 | 8.0 | 16.1 | 0.00 | 0.08 | 0.00 | 66 | 1015.3 |
| 20260505023013 | 13 | 241 | 6.4 | 16.1 | 0.00 | 0.08 | 0.00 | 65 | 1015.7 |
| 20260505021509 | 13 | 278 | 6.4 | 17.7 | 0.00 | 0.08 | 0.00 | 65 | 1016.0 |
| 20260505020012 | 13 | 276 | 6.4 | 14.5 | 0.00 | 0.08 | 0.00 | 68 | 1016.0 |
| 20260505014505 | 13 | 283 | 8.0 | 17.7 | 0.00 | 0.08 | 0.00 | 70 | 1016.2 |
| 20260505013004 | 12 | 247 | 9.7 | 16.1 | 0.00 | 0.10 | 0.00 | 70 | 1016.2 |
| 20260505011502 | 12 | 281 | 8.0 | 16.1 | 0.00 | 0.10 | 0.00 | 72 | 1016.4 |
| 20260505010001 | 12 | 258 | 6.4 | 16.1 | 0.00 | 0.10 | 0.00 | 72 | 1016.6 |
| 20260505004601 | 12 | 324 | 3.2 | 11.3 | 0.00 | 0.10 | 0.00 | 72 | 1016.7 |
| 20260505003056 | 12 | 291 | 3.2 | 11.3 | 0.00 | 0.10 | 0.00 | 76 | 1016.6 |
| 20260505001555 | 11 | 306 | 4.8 | 14.5 | 0.00 | 0.10 | 0.00 | 75 | 1016.4 |
| 20260505000100 | 11 | 358 | 0.0 | 6.4 | 0.00 | 0.10 | 0.00 | 78 | 1016.5 |
| 20260504234602 | 11 | 259 | 1.6 | 8.0 | 0.00 | 0.10 | 0.00 | 80 | 1016.4 |
| 20260504233047 | 11 | 303 | 0.0 | 6.4 | 0.00 | 0.10 | 0.00 | 82 | 1016.3 |
| 20260504231543 | 10 | 180 | 4.8 | 16.1 | 0.00 | 0.13 | 0.00 | 83 | 1016.0 |
| 20260504230041 | 10 | 180 | 4.8 | 14.5 | 0.00 | 0.13 | 0.00 | 83 | 1015.8 |
| 20260504224538 | 10 | 285 | 3.2 | 6.4 | 0.00 | 0.13 | 0.00 | 86 | 1015.9 |
| 20260504223036 | 9 | 285 | 1.6 | 4.8 | 0.00 | 0.13 | 0.00 | 88 | 1015.8 |
| 20260504221534 | 8 | 288 | 0.0 | 3.2 | 0.00 | 0.15 | 0.13 | 91 | 1015.7 |
| 20260504220043 | 7 | 283 | 0.0 | 4.8 | 0.00 | 0.15 | 0.13 | 93 | 1015.4 |
| 20260504214534 | 7 | 180 | 0.0 | 4.8 | 0.00 | 0.15 | 0.13 | 93 | 1015.1 |
| 20260504213045 | 6 | 180 | 1.6 | 3.2 | 0.00 | 0.15 | 0.13 | 93 | 1014.8 |
| 20260504211539 | 6 | 180 | 0.0 | 1.6 | 0.00 | 0.15 | 0.13 | 93 | 1014.9 |
| 20260504210031 | 6 | 180 | 0.0 | 3.2 | 0.00 | 0.15 | 0.13 | 92 | 1014.6 |
| 20260504204537 | 6 | 180 | 1.6 | 4.8 | 0.00 | 0.15 | 0.13 | 92 | 1014.3 |
| 20260504203023 | 7 | 180 | 0.0 | 0.0 | 0.00 | 0.15 | 0.13 | 91 | 1014.1 |
| 20260504201520 | 7 | 180 | 0.0 | 1.6 | 0.03 | 0.15 | 0.13 | 91 | 1013.9 |
| 20260504200018 | 7 | 180 | 1.6 | 8.0 | 0.03 | 0.15 | 0.13 | 91 | 1013.6 |
| 20260504194517 | 7 | 180 | 4.8 | 8.0 | 0.03 | 0.15 | 0.13 | 91 | 1013.2 |
| 20260504193020 | 7 | 180 | 4.8 | 12.9 | 0.03 | 0.15 | 0.13 | 91 | 1013.1 |
| 20260504191520 | 7 | 180 | 4.8 | 9.7 | 0.00 | 0.15 | 0.10 | 91 | 1013.0 |
| 20260504190022 | 7 | 180 | 3.2 | 9.7 | 0.00 | 0.15 | 0.10 | 91 | 1013.0 |
| 20260504184518 | 8 | 180 | 0.0 | 4.8 | 0.00 | 0.15 | 0.10 | 90 | 1012.8 |
| 20260504183019 | 8 | 180 | 1.6 | 6.4 | 0.00 | 0.15 | 0.10 | 90 | 1012.6 |
| 20260504181520 | 8 | 180 | 3.2 | 8.0 | 0.00 | 0.15 | 0.10 | 91 | 1012.5 |
| 20260504180020 | 8 | 180 | 1.6 | 12.9 | 0.00 | 0.15 | 0.10 | 91 | 1012.2 |
| 20260504174520 | 7 | 180 | 6.4 | 14.5 | 0.00 | 0.15 | 0.10 | 91 | 1012.1 |
| 20260504173017 | 7 | 180 | 6.4 | 9.7 | 0.00 | 0.15 | 0.10 | 91 | 1012.1 |
| 20260504171516 | 8 | 180 | 4.8 | 12.9 | 0.00 | 0.15 | 0.10 | 91 | 1012.1 |